Location: Unspecified
(0.0000°N, 0.0000°E)
Time: 07:34:44
(UTC+02:00)

Cosmos 1072 Rocket - Visible Passes

Search period start: 02 July 2016 00:00
Search period end: 12 July 2016 00:00
Orbit: 950 x 1008 km, 82.9° (Epoch: 30 June)

Date Brightness Start Highest point End Pass type
(mag) Time Alt. Az. Time Alt. Az. Time Alt. Az.
02 Jul 4.4 06:35:30 16° S 06:40:36 72° W 06:46:49 10° N visible
03 Jul 6.7 05:17:57 12° SE 05:21:46 20° E 05:26:05 10° NE visible
03 Jul 5.2 07:02:45 15° SW 07:06:53 32° W 07:12:19 10° NNW visible
04 Jul 5.4 05:45:08 27° SSE 05:48:03 45° E 05:53:57 10° NNE visible
04 Jul 6.1 07:30:21 10° WSW 07:33:12 13° W 07:36:04 10° WNW visible
05 Jul 4.3 06:12:17 45° SSW 06:14:20 82° W 06:20:35 10° N visible
06 Jul 6.7 04:54:35 17° ESE 04:55:30 17° E 04:59:21 10° NE visible
06 Jul 5.0 06:39:23 33° WSW 06:40:37 36° W 06:46:17 10° NNW visible
07 Jul 5.6 05:21:38 39° E 05:21:46 39° E 05:27:32 10° NNE visible
07 Jul 5.9 07:06:25 16° W 07:06:55 16° W 07:10:32 10° NW visible
08 Jul 4.5 05:48:39 75° NNE 05:48:39 75° NNE 05:54:20 10° N visible
09 Jul 7.0 04:30:48 13° ENE 04:30:48 13° ENE 04:32:30 10° ENE visible
09 Jul 5.1 06:15:36 38° WNW 06:15:36 38° WNW 06:20:12 10° NNW visible
10 Jul 6.3 04:57:43 27° NE 04:57:43 27° NE 05:01:05 10° NNE visible
10 Jul 6.1 06:42:30 16° WNW 06:42:30 16° WNW 06:44:48 10° NW visible
11 Jul 5.7 05:24:36 35° NNE 05:24:36 35° NNE 05:28:04 10° N visible
